Massena, NY

4:24 AM EST on February 22, 2017 (GMT -0500)
Massena International-Richards

Weather History for KMSS - February, 2012

Change the Weather History Date:

Tuesday, February 28, 2012

  Actual Average Record
Temperature  
Mean Temperature 22 °F 21 °F  
Max Temperature 36 °F 32 °F 51 °F (1983)
Min Temperature 8 °F 11 °F -22 °F (1993)
Degree Days  
Heating Degree Days 43 44  
Month to date heating degree days 1003 1325  
Since 1 July heating degree days 4493 5987  
Cooling Degree Days 0 0  
Month to date cooling degree days 0  
Year to date cooling degree days 0  
Moisture  
Dew Point 14 °F    
Average Humidity 68    
Maximum Humidity 85    
Minimum Humidity 50    
Precipitation  
Precipitation T in 0.07 in 0.62 in (2011)
Month to date precipitation 0.47 1.77  
Year to date precipitation 2.68 3.95  
Sea Level Pressure  
Sea Level Pressure 30.37 in    
Wind  
Wind Speed 7 mph (WNW)    
Max Wind Speed 21 mph    
Max Gust Speed 30 mph    
Visibility 9 miles    
Events Snow    
T = Trace of Precipitation, MM = Missing Value Source: NWS Daily Summary

Daily Weather History Graph

Daily Weather History Graph

Search for Another Location

Airport or City:

Trip Planner

Search our weather history database for the weather conditions in past years. The results will help you decide how hot, cold, wet, or windy it might be!

Date:

Astronomy

Feb. 28, 2012 Rise Set
Actual Time 6:39 AM EST 5:44 PM EST
Civil Twilight 6:10 AM EST 6:14 PM EST
Nautical Twilight 5:36 AM EST 6:48 PM EST
Astronomical Twilight 5:02 AM EST 7:22 PM EST
Moon 9:26 AM EST (2/28) No Moon Set
Length of Visible Light 12h 04m
Length of Day
11h 05m
Waxing Crescent, 37% of the Moon is Illuminated
Feb 28
Waxing Crescent
Feb 29
First Quarter
Mar 8
Full
Mar 14
Last Quarter
Mar 22
New

Hourly Weather History & Observations

Time (EST) Temp. Windchill Dew Point Humidity Pressure Visibility Wind Dir Wind Speed Gust Speed Precip Events Conditions
12:24 AM 35.6 °F 27.1 °F 26.6 °F 70% 30.10 in 10.0 mi WSW 12.7 mph - N/A   Overcast
12:53 AM 36.0 °F 27.1 °F 28.0 °F 73% 30.13 in 10.0 mi West 13.8 mph - N/A   Overcast
1:07 AM 30.2 °F 19.8 °F 26.6 °F 86% 30.13 in 9.0 mi WNW 13.8 mph - N/A   Overcast
1:26 AM 30.2 °F 19.8 °F 26.6 °F 86% 30.15 in 2.5 mi WNW 13.8 mph 20.7 mph 0.00 in Snow Light Snow
1:33 AM 30.2 °F 20.2 °F 24.8 °F 80% 30.15 in 5.0 mi WNW 12.7 mph 20.7 mph 0.00 in Snow Light Snow
1:53 AM 30.0 °F 20.5 °F 25.0 °F 82% 30.18 in 4.0 mi WNW 11.5 mph - 0.00 in Snow Light Snow
2:11 AM 30.2 °F 18.9 °F 24.8 °F 80% 30.18 in 6.0 mi WNW 16.1 mph 23.0 mph 0.00 in Snow Light Snow
2:53 AM 28.0 °F 17.5 °F 24.1 °F 85% 30.22 in 5.0 mi WNW 12.7 mph 21.9 mph 0.00 in Snow Light Snow
3:29 AM 24.8 °F 12.9 °F 17.6 °F 74% 30.25 in 5.0 mi NW 13.8 mph 23.0 mph 0.00 in Snow Light Snow
3:53 AM 24.1 °F 11.5 °F 16.0 °F 71% 30.30 in 7.0 mi NW 15.0 mph 26.5 mph 0.00 in Snow Light Snow
4:42 AM 21.2 °F 7.3 °F 12.2 °F 68% 30.32 in 10.0 mi NW 16.1 mph 25.3 mph 0.00 in   Mostly Cloudy
4:53 AM 21.0 °F 6.6 °F 12.0 °F 68% 30.36 in 9.0 mi NW 17.3 mph 27.6 mph 0.00 in   Overcast
5:53 AM 19.9 °F 7.9 °F 10.0 °F 65% 30.40 in 10.0 mi WNW 11.5 mph 20.7 mph N/A   Clear
6:53 AM 18.0 °F 6.9 °F 10.0 °F 71% 30.45 in 10.0 mi West 9.2 mph - N/A   Clear
7:53 AM 18.0 °F 6.1 °F 10.0 °F 71% 30.49 in 10.0 mi WNW 10.4 mph - N/A   Clear
8:53 AM 19.0 °F 6.8 °F 9.0 °F 65% 30.51 in 10.0 mi West 11.5 mph - N/A   Clear
9:53 AM 19.9 °F 10.1 °F 9.0 °F 62% 30.51 in 10.0 mi WNW 8.1 mph - N/A   Clear
10:53 AM 21.0 °F 12.4 °F 9.0 °F 60% 30.51 in 10.0 mi West 6.9 mph - N/A   Clear
11:53 AM 21.9 °F 11.0 °F 10.0 °F 60% 30.50 in 10.0 mi WNW 10.4 mph - N/A   Clear
12:53 PM 23.0 °F 13.1 °F 10.9 °F 60% 30.48 in 10.0 mi WNW 9.2 mph - N/A   Clear
1:53 PM 24.1 °F 14.4 °F 10.9 °F 57% 30.48 in 10.0 mi West 9.2 mph - N/A   Clear
2:53 PM 25.0 °F 15.5 °F 10.9 °F 55% 30.47 in 10.0 mi West 9.2 mph - N/A   Clear
3:53 PM 26.1 °F 18.4 °F 10.9 °F 53% 30.46 in 10.0 mi West 6.9 mph - N/A   Clear
4:53 PM 25.0 °F 18.1 °F 10.9 °F 55% 30.45 in 10.0 mi West 5.8 mph - N/A   Clear
5:53 PM 24.1 °F - 10.9 °F 57% 30.45 in 10.0 mi Calm Calm - N/A   Clear
6:53 PM 17.1 °F - 10.0 °F 74% 30.47 in 10.0 mi Calm Calm - N/A   Clear
7:53 PM 12.0 °F - 7.0 °F 80% 30.46 in 10.0 mi Calm Calm - N/A   Clear
8:53 PM 10.9 °F - 7.0 °F 84% 30.45 in 10.0 mi Calm Calm - N/A   Clear
9:53 PM 9.0 °F - 3.9 °F 80% 30.45 in 10.0 mi Calm Calm - N/A   Clear
10:53 PM 10.0 °F - 6.1 °F 84% 30.44 in 10.0 mi Calm Calm - N/A   Mostly Cloudy
11:53 PM 10.0 °F - 6.1 °F 84% 30.43 in 10.0 mi Calm Calm - N/A   Overcast